Flag for Finland Weather past 2 weeks in Mariehamn, Finland

Now
25 °F

Passing clouds.


Feels Like: 18 °F
Forecast: 29 / 32 °F
Wind: 6 mph from Northwest

Location: Mariehamn / Aland Island

Current Time: Dec 26, 2014 at 8:00:04 AM

Latest Report: Dec 26, 2014 at 7:20 AM


Visibility: N/A

Pressure: 29.98 "Hg

Humidity: 93%

Dew point: 23 °F

Location of MariehamnLocation

Historic Weather in Mariehamn — Graph

°F

Mariehamn temperature yesterday

Maximum temperature yesterday: 28 °F (at 1:50 PM)
Minimum temperature yesterday: 23 °F (at 8:20 AM)
Average temperature yesterday: 25 °F

Past Weeks' High & Low Weather Summary

 TemperatureHumidityPressure
High43 °F (Dec 11, 6:01 AM)100% (Dec 13, 3:20 AM)30.01 "Hg (Dec 13, 3:20 AM)
Low21 °F (Dec 18, 3:20 AM)65% (Dec 16, 4:20 PM)28.77 "Hg (Dec 13, 4:50 AM)
Average35 °F88%29.36 "Hg
* Reported Dec 11 6:01 AM — Dec 26 6:50 AM, Mariehamn, Weather by CustomWeather, © 2014

Note: Actual official high and low records may vary slightly from our data, if they occured in-between our weather recording intervals... More about our weather records

Advertising

Mariehamn weather history for previous 24 hours

 ConditionsComfort  
Time TempWeatherWind HumidityBarometerVisibility
6:50 AM
Dec 26
25 °FPassing clouds.7 mph93%29.98 "HgN/A
6:20 AM25 °FPassing clouds.7 mph86%29.98 "HgN/A
5:50 AM23 °FClear.3 mph93%29.98 "Hg10 mi
4:50 AM25 °FPassing clouds.5 mph93%30.01 "HgN/A
4:20 AM25 °FClear.5 mph93%30.01 "Hg10 mi
3:50 AM25 °FClear.3 mph93%30.01 "Hg10 mi
3:20 AM25 °FClear.3 mph93%30.01 "Hg10 mi
2:50 AM25 °FClear.2 mph93%30.01 "Hg10 mi
2:20 AM25 °FClear.3 mph86%30.01 "Hg10 mi
1:50 AM25 °FClear.6 mph93%30.01 "Hg10 mi
1:20 AM25 °FPassing clouds.6 mph93%30.01 "HgN/A
12:50 AM25 °FPassing clouds.5 mph93%30.01 "HgN/A
12:20 AM25 °FClear.6 mph93%30.01 "Hg10 mi
11:50 PM
Dec 25
25 °FClear.9 mph93%30.01 "Hg10 mi
11:20 PM25 °FClear.7 mph86%30.01 "Hg10 mi
10:50 PM25 °FClear.6 mph86%30.01 "Hg10 mi
10:20 PM25 °FPassing clouds.6 mph86%30.01 "HgN/A
9:50 PM23 °FPassing clouds.6 mph93%30.01 "HgN/A
9:20 PM23 °FClear.6 mph86%30.01 "Hg10 mi
8:50 PM23 °FClear.6 mph86%30.01 "Hg10 mi
8:20 PM23 °FClear.3 mph80%30.01 "Hg10 mi
7:50 PM23 °FClear.5 mph86%30.01 "Hg10 mi
7:20 PM23 °FClear.6 mph93%30.01 "Hg10 mi
6:50 PM25 °FPassing clouds.8 mph86%30.01 "HgN/A
6:20 PM25 °FPassing clouds.8 mph86%30.01 "HgN/A
5:50 PM25 °FPassing clouds.5 mph86%30.01 "HgN/A
5:20 PM25 °FPassing clouds.5 mph86%30.01 "HgN/A
4:50 PM23 °FClear.2 mph80%29.98 "Hg10 mi
4:20 PM25 °FPassing clouds.3 mph80%29.98 "HgN/A
3:50 PM25 °FPassing clouds.5 mph86%29.98 "HgN/A
3:20 PM25 °FSunny.2 mph80%29.98 "Hg10 mi
2:50 PM27 °FPartly sunny.No wind80%29.98 "HgN/A
2:20 PM27 °FPassing clouds.2 mph80%29.95 "HgN/A
1:50 PM28 °FLight snow. Partly sunny.3 mph69%29.95 "HgN/A
1:20 PM27 °FPartly sunny.3 mph74%29.95 "HgN/A
12:50 PM27 °FPartly sunny.2 mph74%29.95 "HgN/A
12:20 PM25 °FSunny.3 mph80%29.92 "Hg10 mi
11:50 AM25 °FPassing clouds.6 mph74%29.92 "HgN/A
11:20 AM27 °FPartly sunny.7 mph74%29.92 "HgN/A
10:50 AM25 °FPartly sunny.5 mph80%29.89 "HgN/A
10:20 AM23 °FPassing clouds.5 mph80%29.89 "HgN/A
9:50 AM23 °FSunny.7 mph74%29.89 "Hg10 mi
9:20 AM23 °FPassing clouds.7 mph80%29.86 "HgN/A
8:50 AM23 °FPassing clouds.7 mph80%29.86 "HgN/A
8:20 AM23 °FPassing clouds.9 mph74%29.83 "HgN/A
Weather by CustomWeather, © 2014

See weather overviewHow to use our weather pages